| time (UTC) | temp C | wind direction | speed KPH | gust KPH | rain 1hr cm | rain 24hr cm | rain mn cm | humidity % | barometer mb |
| 20260504014534 | 10 | 148 | 0.0 | 0.0 | 0.00 | 0.00 | 0.00 | 78 | 1017.4 |
| 20260504014031 | 10 | 149 | 0.0 | 0.0 | 0.00 | 0.00 | 0.00 | 78 | 1017.6 |
| 20260504013529 | 10 | 149 | 0.0 | 0.0 | 0.00 | 0.00 | 0.00 | 78 | 1017.4 |
| 20260504013026 | 10 | 149 | 0.0 | 0.0 | 0.00 | 0.00 | 0.00 | 78 | 1017.6 |
| 20260504012523 | 10 | 148 | 0.0 | 0.0 | 0.00 | 0.00 | 0.00 | 77 | 1017.6 |
| 20260504012021 | 10 | 148 | 0.0 | 0.0 | 0.00 | 0.00 | 0.00 | 76 | 1017.5 |
| 20260504011517 | 11 | 148 | 0.0 | 0.0 | 0.00 | 0.00 | 0.00 | 75 | 1017.3 |
| 20260504011013 | 11 | 152 | 0.0 | 0.0 | 0.00 | 0.00 | 0.00 | 75 | 1017.5 |
| 20260504010509 | 11 | 152 | 0.0 | 0.0 | 0.00 | 0.00 | 0.00 | 74 | 1017.5 |
| 20260504010005 | 11 | 151 | 0.0 | 0.0 | 0.00 | 0.00 | 0.00 | 71 | 1017.4 |
| 20260504005502 | 12 | 153 | 0.0 | 0.0 | 0.00 | 0.00 | 0.00 | 72 | 1017.6 |
| 20260504005000 | 12 | 143 | 0.0 | 0.0 | 0.00 | 0.00 | 0.00 | 70 | 1017.3 |
| 20260504004457 | 12 | 154 | 0.0 | 0.0 | 0.00 | 0.00 | 0.00 | 70 | 1017.3 |
| 20260504003954 | 13 | 154 | 0.0 | 0.0 | 0.00 | 0.00 | 0.00 | 67 | 1016.9 |
| 20260504003450 | 13 | 160 | 0.0 | 0.0 | 0.00 | 0.00 | 0.00 | 64 | 1017.1 |
| 20260504002947 | 14 | 149 | 0.0 | 0.0 | 0.00 | 0.00 | 0.00 | 60 | 1017.2 |
| 20260504002444 | 15 | 154 | 0.0 | 0.0 | 0.00 | 0.00 | 0.00 | 59 | 1017.0 |
| 20260504001941 | 15 | 154 | 0.0 | 0.0 | 0.00 | 0.00 | 0.00 | 55 | 1017.2 |
| 20260504001439 | 16 | 156 | 0.0 | 0.0 | 0.00 | 0.00 | 0.00 | 54 | 1017.1 |
| 20260504000936 | 16 | 149 | 0.0 | 1.6 | 0.00 | 0.00 | 0.00 | 52 | 1017.2 |
| 20260504000432 | 17 | 160 | 0.0 | 0.0 | 0.00 | 0.00 | 0.00 | 51 | 1017.2 |
| 20260503235930 | 17 | 170 | 0.0 | 1.6 | 0.00 | 0.00 | 0.00 | 48 | 1017.2 |
| 20260503235427 | 18 | 160 | 0.0 | 0.0 | 0.00 | 0.00 | 0.00 | 48 | 1017.2 |
| 20260503234925 | 19 | 166 | 0.0 | 1.6 | 0.00 | 0.00 | 0.00 | 44 | 1017.2 |
| 20260503234422 | 18 | 209 | 0.0 | 4.8 | 0.00 | 0.00 | 0.00 | 46 | 1017.3 |
| 20260503233920 | 20 | 177 | 0.0 | 1.6 | 0.00 | 0.00 | 0.00 | 44 | 1017.6 |
| 20260503233416 | 19 | 187 | 0.0 | 3.2 | 0.00 | 0.00 | 0.00 | 44 | 1017.3 |
| 20260503232913 | 20 | 169 | 0.0 | 3.2 | 0.00 | 0.00 | 0.00 | 45 | 1017.5 |
| 20260503232410 | 20 | 161 | 0.0 | 1.6 | 0.00 | 0.00 | 0.00 | 44 | 1017.4 |
| 20260503231908 | 20 | 189 | 1.6 | 1.6 | 0.00 | 0.00 | 0.00 | 42 | 1017.5 |
| 20260503231405 | 20 | 203 | 0.0 | 3.2 | 0.00 | 0.00 | 0.00 | 42 | 1017.5 |
| 20260503230901 | 20 | 201 | 0.0 | 3.2 | 0.00 | 0.00 | 0.00 | 45 | 1017.4 |
| 20260503230358 | 19 | 264 | 3.2 | 4.8 | 0.00 | 0.00 | 0.00 | 43 | 1017.5 |
| 20260503225855 | 19 | 237 | 3.2 | 3.2 | 0.00 | 0.00 | 0.00 | 40 | 1017.6 |
| 20260503225351 | 19 | 270 | 6.4 | 9.7 | 0.00 | 0.00 | 0.00 | 40 | 1017.6 |
| 20260503224848 | 20 | 259 | 3.2 | 4.8 | 0.00 | 0.00 | 0.00 | 40 | 1017.8 |
| 20260503224345 | 20 | 189 | 1.6 | 4.8 | 0.00 | 0.00 | 0.00 | 41 | 1017.8 |
| 20260503223842 | 19 | 191 | 1.6 | 11.3 | 0.00 | 0.00 | 0.00 | 41 | 1017.7 |
| 20260503223340 | 20 | 208 | 3.2 | 4.8 | 0.00 | 0.00 | 0.00 | 40 | 1017.7 |
| 20260503222835 | 20 | 239 | 3.2 | 6.4 | 0.00 | 0.00 | 0.00 | 40 | 1018.0 |
| 20260503222334 | 21 | 309 | 6.4 | 9.7 | 0.00 | 0.00 | 0.00 | 38 | 1017.9 |
| 20260503221832 | 21 | 168 | 0.0 | 3.2 | 0.00 | 0.00 | 0.00 | 42 | 1017.9 |
| 20260503221331 | 21 | 151 | 1.6 | 3.2 | 0.00 | 0.00 | 0.00 | 42 | 1017.9 |
| 20260503220826 | 21 | 152 | 0.0 | 3.2 | 0.00 | 0.00 | 0.00 | 42 | 1017.8 |
| 20260503220323 | 20 | 183 | 0.0 | 3.2 | 0.00 | 0.00 | 0.00 | 40 | 1018.0 |
| 20260503215820 | 20 | 185 | 0.0 | 3.2 | 0.00 | 0.00 | 0.00 | 41 | 1018.1 |
| 20260503215317 | 20 | 240 | 8.0 | 9.7 | 0.00 | 0.00 | 0.00 | 41 | 1018.1 |
| 20260503214815 | 20 | 171 | 4.8 | 4.8 | 0.00 | 0.00 | 0.00 | 40 | 1018.1 |
| 20260503214312 | 20 | 238 | 3.2 | 3.2 | 0.00 | 0.00 | 0.00 | 41 | 1018.2 |
| 20260503213809 | 20 | 125 | 1.6 | 3.2 | 0.00 | 0.00 | 0.00 | 39 | 1018.2 |
| 20260503213307 | 19 | 331 | 3.2 | 4.8 | 0.00 | 0.00 | 0.00 | 39 | 1018.4 |
| 20260503212804 | 19 | 224 | 6.4 | 9.7 | 0.00 | 0.00 | 0.00 | 41 | 1018.2 |
| 20260503212301 | 20 | 240 | 3.2 | 6.4 | 0.00 | 0.00 | 0.00 | 40 | 1018.3 |
| 20260503211759 | 20 | 207 | 0.0 | 3.2 | 0.00 | 0.00 | 0.00 | 43 | 1018.4 |
| 20260503211255 | 20 | 264 | 4.8 | 12.9 | 0.00 | 0.00 | 0.00 | 42 | 1018.5 |
| 20260503210755 | 20 | 132 | 1.6 | 3.2 | 0.00 | 0.00 | 0.00 | 38 | 1018.3 |
| 20260503210253 | 19 | 178 | 0.0 | 3.2 | 0.00 | 0.00 | 0.00 | 41 | 1018.5 |
| 20260503205748 | 18 | 238 | 8.0 | 9.7 | 0.00 | 0.00 | 0.00 | 39 | 1018.7 |
| 20260503205245 | 20 | 244 | 6.4 | 6.4 | 0.00 | 0.00 | 0.00 | 40 | 1018.7 |
| 20260503204741 | 20 | 194 | 1.6 | 11.3 | 0.00 | 0.00 | 0.00 | 40 | 1018.7 |
| 20260503204239 | 19 | 234 | 9.7 | 20.9 | 0.00 | 0.00 | 0.00 | 43 | 1018.8 |
| 20260503203736 | 19 | 14 | 4.8 | 9.7 | 0.00 | 0.00 | 0.00 | 38 | 1019.0 |
| 20260503203233 | 20 | 188 | 3.2 | 6.4 | 0.00 | 0.00 | 0.00 | 37 | 1019.0 |
| 20260503202730 | 18 | 134 | 0.0 | 0.0 | 0.00 | 0.00 | 0.00 | 40 | 1019.2 |
| 20260503202228 | 18 | 332 | 1.6 | 3.2 | 0.00 | 0.00 | 0.00 | 39 | 1019.2 |
| 20260503201726 | 18 | 248 | 8.0 | 12.9 | 0.00 | 0.00 | 0.00 | 37 | 1019.4 |
| 20260503201223 | 19 | 231 | 4.8 | 6.4 | 0.00 | 0.00 | 0.00 | 39 | 1019.2 |
| 20260503200719 | 18 | 213 | 3.2 | 12.9 | 0.00 | 0.00 | 0.00 | 41 | 1019.5 |
| 20260503200216 | 18 | 198 | 3.2 | 12.9 | 0.00 | 0.00 | 0.00 | 43 | 1019.4 |
| 20260503195713 | 18 | 179 | 0.0 | 9.7 | 0.00 | 0.00 | 0.00 | 37 | 1019.6 |
| 20260503195210 | 20 | 236 | 4.8 | 6.4 | 0.00 | 0.00 | 0.00 | 37 | 1019.7 |
| 20260503194707 | 19 | 221 | 3.2 | 6.4 | 0.00 | 0.00 | 0.00 | 40 | 1019.9 |
| 20260503194202 | 18 | 127 | 3.2 | 6.4 | 0.00 | 0.00 | 0.00 | 43 | 1019.8 |
| 20260503193659 | 18 | 135 | 1.6 | 4.8 | 0.00 | 0.00 | 0.00 | 44 | 1019.8 |
| 20260503193155 | 18 | 85 | 1.6 | 4.8 | 0.00 | 0.00 | 0.00 | 45 | 1020.0 |
| 20260503192651 | 18 | 160 | 1.6 | 9.7 | 0.00 | 0.00 | 0.00 | 44 | 1020.2 |
| 20260503192146 | 17 | 246 | 1.6 | 6.4 | 0.00 | 0.00 | 0.00 | 42 | 1019.9 |
| 20260503191643 | 19 | 232 | 3.2 | 11.3 | 0.00 | 0.00 | 0.00 | 42 | 1020.2 |
| 20260503191140 | 18 | 271 | 3.2 | 6.4 | 0.00 | 0.00 | 0.00 | 39 | 1020.0 |
| 20260503190637 | 17 | 127 | 4.8 | 6.4 | 0.00 | 0.00 | 0.00 | 42 | 1020.3 |
| 20260503190134 | 17 | 171 | 0.0 | 9.7 | 0.00 | 0.00 | 0.00 | 40 | 1020.4 |
| 20260503185631 | 17 | 221 | 8.0 | 11.3 | 0.00 | 0.00 | 0.00 | 42 | 1020.4 |
| 20260503185126 | 18 | 357 | 1.6 | 6.4 | 0.00 | 0.00 | 0.00 | 42 | 1020.5 |
| 20260503184621 | 18 | 256 | 3.2 | 6.4 | 0.00 | 0.00 | 0.00 | 40 | 1020.5 |
| 20260503184118 | 17 | 311 | 6.4 | 6.4 | 0.00 | 0.00 | 0.00 | 41 | 1020.6 |
| 20260503183615 | 17 | 275 | 6.4 | 11.3 | 0.00 | 0.00 | 0.00 | 42 | 1020.6 |
| 20260503183112 | 17 | 226 | 1.6 | 9.7 | 0.00 | 0.00 | 0.00 | 42 | 1020.8 |
| 20260503182610 | 17 | 205 | 8.0 | 11.3 | 0.00 | 0.00 | 0.00 | 41 | 1020.7 |
| 20260503182108 | 17 | 276 | 9.7 | 12.9 | 0.00 | 0.00 | 0.00 | 43 | 1020.8 |
| 20260503181604 | 17 | 233 | 9.7 | 12.9 | 0.00 | 0.00 | 0.00 | 44 | 1021.0 |
| 20260503181101 | 16 | 284 | 6.4 | 6.4 | 0.00 | 0.00 | 0.00 | 42 | 1021.1 |
| 20260503180558 | 17 | 239 | 4.8 | 9.7 | 0.00 | 0.00 | 0.00 | 45 | 1020.9 |
| 20260503180056 | 16 | 187 | 0.0 | 4.8 | 0.00 | 0.00 | 0.00 | 47 | 1021.0 |
| 20260503175553 | 16 | 280 | 4.8 | 11.3 | 0.00 | 0.00 | 0.00 | 41 | 1021.0 |
| 20260503175050 | 17 | 253 | 3.2 | 4.8 | 0.00 | 0.00 | 0.00 | 40 | 1021.2 |
| 20260503174547 | 17 | 170 | 0.0 | 3.2 | 0.00 | 0.00 | 0.00 | 41 | 1021.2 |
| 20260503174043 | 16 | 206 | 3.2 | 4.8 | 0.00 | 0.00 | 0.00 | 42 | 1021.4 |
| 20260503173538 | 16 | 283 | 6.4 | 17.7 | 0.00 | 0.00 | 0.00 | 42 | 1021.4 |
| 20260503173035 | 16 | 142 | 0.0 | 3.2 | 0.00 | 0.00 | 0.00 | 44 | 1021.4 |
| 20260503172533 | 15 | 227 | 3.2 | 9.7 | 0.00 | 0.00 | 0.00 | 47 | 1021.4 |
| 20260503172030 | 16 | 223 | 4.8 | 6.4 | 0.00 | 0.00 | 0.00 | 45 | 1021.6 |
| 20260503171526 | 15 | 137 | 1.6 | 3.2 | 0.00 | 0.00 | 0.00 | 45 | 1021.5 |
| 20260503171024 | 15 | 189 | 6.4 | 6.4 | 0.00 | 0.00 | 0.00 | 44 | 1021.6 |
| 20260503170520 | 16 | 325 | 6.4 | 9.7 | 0.00 | 0.00 | 0.00 | 43 | 1021.7 |
| 20260503150912 | 14 | 68 | 0.0 | 6.4 | 0.00 | 0.00 | 0.00 | 50 | 1022.5 |
| 20260503150409 | 15 | 111 | 1.6 | 4.8 | 0.00 | 0.00 | 0.00 | 52 | 1022.6 |
| 20260503131302 | 11 | 147 | 0.0 | 1.6 | 0.00 | 0.00 | 0.00 | 69 | 1022.4 |
| 20260503130759 | 11 | 113 | 0.0 | 4.8 | 0.00 | 0.00 | 0.00 | 71 | 1022.5 |
| 20260503130256 | 11 | 104 | 1.6 | 4.8 | 0.00 | 0.00 | 0.00 | 69 | 1022.5 |
| 20260503110650 | 3 | 158 | 0.0 | 0.0 | 0.00 | 0.00 | 0.00 | 99 | 1021.2 |
| 20260503110147 | 3 | 161 | 0.0 | 0.0 | 0.00 | 0.00 | 0.00 | 99 | 1021.2 |
| 20260503100114 | 3 | 157 | 0.0 | 0.0 | 0.00 | 0.00 | 0.00 | 99 | 1020.4 |
| 20260503081504 | 4 | 138 | 0.0 | 0.0 | 0.00 | 0.00 | 0.00 | 97 | 1019.8 |
| 20260503081000 | 4 | 135 | 0.0 | 0.0 | 0.00 | 0.00 | 0.00 | 97 | 1019.9 |
| 20260503080457 | 4 | 149 | 0.0 | 0.0 | 0.00 | 0.00 | 0.00 | 98 | 1019.7 |
| 20260503072933 | 5 | 151 | 0.0 | 0.0 | 0.00 | 0.00 | 0.00 | 96 | 1019.6 |
| 20260503072430 | 5 | 127 | 0.0 | 1.6 | 0.00 | 0.00 | 0.00 | 96 | 1019.5 |
| 20260503071927 | 5 | 129 | 0.0 | 0.0 | 0.00 | 0.00 | 0.00 | 96 | 1019.3 |
| 20260503071424 | 5 | 104 | 1.6 | 1.6 | 0.00 | 0.00 | 0.00 | 96 | 1019.3 |
| 20260503070920 | 5 | 130 | 0.0 | 0.0 | 0.00 | 0.00 | 0.00 | 97 | 1019.3 |
| 20260503070418 | 4 | 149 | 0.0 | 0.0 | 0.00 | 0.00 | 0.00 | 96 | 1019.0 |
| 20260503060344 | 5 | 153 | 0.0 | 0.0 | 0.00 | 0.00 | 0.00 | 95 | 1019.2 |
| 20260503054831 | 5 | 156 | 0.0 | 0.0 | 0.00 | 0.00 | 0.00 | 94 | 1019.3 |
| 20260503054327 | 5 | 156 | 0.0 | 0.0 | 0.00 | 0.00 | 0.00 | 94 | 1019.2 |
| 20260503053825 | 5 | 157 | 0.0 | 0.0 | 0.00 | 0.00 | 0.00 | 93 | 1019.3 |
| 20260503053324 | 5 | 157 | 0.0 | 0.0 | 0.00 | 0.00 | 0.00 | 93 | 1019.1 |
| 20260503052819 | 6 | 173 | 0.0 | 0.0 | 0.00 | 0.00 | 0.00 | 93 | 1019.3 |
| 20260503052316 | 6 | 158 | 0.0 | 0.0 | 0.00 | 0.00 | 0.00 | 92 | 1018.9 |
| 20260503051812 | 6 | 159 | 0.0 | 1.6 | 0.00 | 0.00 | 0.00 | 92 | 1018.9 |
| 20260503051309 | 6 | 150 | 0.0 | 0.0 | 0.00 | 0.00 | 0.00 | 91 | 1018.9 |
| 20260503050806 | 6 | 132 | 0.0 | 0.0 | 0.00 | 0.00 | 0.00 | 91 | 1018.9 |
| 20260503050302 | 7 | 140 | 0.0 | 0.0 | 0.00 | 0.00 | 0.00 | 89 | 1018.9 |
| 20260503045800 | 7 | 147 | 0.0 | 0.0 | 0.00 | 0.00 | 0.00 | 87 | 1018.7 |
| 20260503045257 | 7 | 118 | 1.6 | 1.6 | 0.00 | 0.00 | 0.00 | 87 | 1018.9 |
| 20260503044753 | 7 | 139 | 0.0 | 1.6 | 0.00 | 0.00 | 0.00 | 86 | 1018.9 |
| 20260503044250 | 7 | 132 | 1.6 | 1.6 | 0.00 | 0.00 | 0.00 | 86 | 1019.0 |
| 20260503043748 | 7 | 150 | 0.0 | 1.6 | 0.00 | 0.00 | 0.00 | 86 | 1019.1 |
| 20260503043245 | 7 | 147 | 0.0 | 0.0 | 0.00 | 0.00 | 0.00 | 87 | 1018.9 |
| 20260503042740 | 7 | 168 | 0.0 | 3.2 | 0.00 | 0.00 | 0.00 | 88 | 1019.2 |
| 20260503042237 | 7 | 156 | 0.0 | 0.0 | 0.00 | 0.00 | 0.00 | 88 | 1019.1 |
| 20260503041733 | 7 | 178 | 0.0 | 1.6 | 0.00 | 0.00 | 0.00 | 87 | 1018.9 |
| 20260503041231 | 7 | 205 | 0.0 | 0.0 | 0.00 | 0.00 | 0.00 | 87 | 1018.9 |
| 20260503040729 | 7 | 162 | 0.0 | 1.6 | 0.00 | 0.00 | 0.00 | 87 | 1018.7 |
| 20260503040226 | 7 | 158 | 0.0 | 0.0 | 0.00 | 0.00 | 0.00 | 86 | 1018.5 |
| 20260503035723 | 7 | 160 | 0.0 | 0.0 | 0.00 | 0.00 | 0.00 | 86 | 1018.6 |
| 20260503035220 | 8 | 160 | 0.0 | 0.0 | 0.00 | 0.00 | 0.00 | 84 | 1018.6 |
| 20260503034717 | 8 | 134 | 0.0 | 0.0 | 0.00 | 0.00 | 0.00 | 81 | 1018.8 |
| 20260503034214 | 8 | 150 | 0.0 | 0.0 | 0.00 | 0.00 | 0.00 | 79 | 1018.8 |
| 20260503033712 | 9 | 144 | 0.0 | 0.0 | 0.00 | 0.00 | 0.00 | 78 | 1018.7 |
| 20260503033209 | 10 | 136 | 0.0 | 1.6 | 0.00 | 0.00 | 0.00 | 77 | 1018.6 |
| 20260503032707 | 10 | 114 | 1.6 | 1.6 | 0.00 | 0.00 | 0.00 | 76 | 1018.6 |
| 20260503032206 | 10 | 136 | 0.0 | 4.8 | 0.00 | 0.00 | 0.00 | 75 | 1018.6 |
| 20260503031702 | 10 | 53 | 0.0 | 6.4 | 0.00 | 0.00 | 0.00 | 73 | 1018.6 |
| 20260503031201 | 10 | 41 | 0.0 | 3.2 | 0.00 | 0.00 | 0.00 | 73 | 1018.4 |
| 20260503030656 | 10 | 107 | 1.6 | 6.4 | 0.00 | 0.00 | 0.00 | 71 | 1018.5 |
| 20260503030153 | 10 | 306 | 4.8 | 9.7 | 0.00 | 0.00 | 0.00 | 71 | 1018.7 |
| 20260503025650 | 10 | 335 | 3.2 | 9.7 | 0.00 | 0.00 | 0.00 | 72 | 1018.7 |
| 20260503025148 | 10 | 254 | 6.4 | 11.3 | 0.00 | 0.00 | 0.00 | 71 | 1018.7 |
| 20260503024644 | 10 | 39 | 3.2 | 11.3 | 0.00 | 0.00 | 0.00 | 71 | 1018.5 |
| 20260503024142 | 10 | 318 | 3.2 | 12.9 | 0.00 | 0.00 | 0.00 | 71 | 1018.5 |
| 20260503023639 | 10 | 300 | 3.2 | 14.5 | 0.00 | 0.00 | 0.00 | 71 | 1018.5 |
| 20260503023136 | 10 | 311 | 9.7 | 12.9 | 0.00 | 0.00 | 0.00 | 70 | 1018.5 |
| 20260503022632 | 11 | 330 | 6.4 | 9.7 | 0.00 | 0.00 | 0.00 | 68 | 1018.5 |
| 20260503022131 | 11 | 177 | 4.8 | 16.1 | 0.00 | 0.00 | 0.00 | 64 | 1018.4 |
| 20260503021629 | 12 | 312 | 3.2 | 12.9 | 0.00 | 0.00 | 0.00 | 61 | 1018.5 |
| 20260503021125 | 12 | 350 | 8.0 | 11.3 | 0.00 | 0.00 | 0.00 | 59 | 1018.4 |
| 20260503020622 | 12 | 221 | 1.6 | 3.2 | 0.00 | 0.00 | 0.00 | 59 | 1018.3 |
| 20260503020120 | 12 | 285 | 4.8 | 6.4 | 0.00 | 0.00 | 0.00 | 58 | 1018.2 |
| 20260503015616 | 12 | 263 | 1.6 | 3.2 | 0.00 | 0.00 | 0.00 | 59 | 1018.1 |
| 20260503015113 | 12 | 211 | 1.6 | 1.6 | 0.00 | 0.00 | 0.00 | 59 | 1017.9 |